SOMP2

Last updated on Tue Aug 15 2017 01:15:05 GMT+0100 (British Summer Time)

1 42701U 98067LJ 17226.83114320 .00008525 00000-0 12323-3 0 9998 2 42701 51.6400 104.7720 0006673 175.2511 184.8545 15.56817723 14068
UTC large
Height (km)
Speed (km/s)
/
Latitude / Longitude
Inclination (degrees)
Orbital Period (minutes)
Azimuth
Elevation
Range (km)
Doppler Factor

Next 0 passes for location: London (51.5072 / 0.1276)

Sorry there are no passes over London.